Regional Weather Roundup
Issued by NWS New Orleans/Baton Rouge, LA

Home | Current Version | Previous Version | Text Only | Print | Product List | Glossary Off
Versions: 1 2 3 4 5 6 7 8 9 10 11 12 13 14 15 16 17 18 19 20 21 22 23 24 25 26 27 28 29 30 31 32 33 34 35 36 37 38 39 40 41 42 43 44 45 46 47 48 49 50

393
ASUS44 KLIX 220905
RWRLIX
NEW ORLEANS REGIONAL WEATHER ROUNDUP
NATIONAL WEATHER SERVICE NEW ORLEANS LA
400 AM CDT MON SEP 22 2014

NOTE: "FAIR" INDICATES FEW OR NO CLOUDS BELOW 12,000 FEET WITH NO
      SIGNIFICANT WEATHER AND/OR OBSTRUCTIONS TO VISIBILITY.
      SKY/WX - SKY CONDITION AND SIGNIFICANT WEATHER.
      TMP - AIR TEMPERATURE.     DP    - DEWPOINT TEMPERATURE.
      RH  - RELATIVE HUMIDITY.   PRES  - PRESSURE.
      HI  - HEAT INDEX.          WCI   - WIND CHILL INDEX.

*  THESE STATIONS ARE NOT NWS OR FAA STATIONS AND ARE NOT UNDER
   NWS QUALITY CONTROL.

LAZ038-040-048-061>063-065>067-069-221000-
SOUTHEAST LOUISIANA

CITY           SKY/WX    TMP DP  RH WIND       PRES   REMARKS
N.O. AUDUBON     N/A     73  73 100 MISG        N/A
N.O. INTL ARPT PTCLDY    74  70  87 CALM      30.00S
N.O. LAKEFRONT CLEAR     80  71  74 N5        30.00S
N.O. DOWNTOWN*   N/A     79  66  65 CALM      30.00S
SLIDELL        CLEAR     67  65  93 CALM      30.00S
BATON ROUGE    CLEAR     68  67  96 CALM      30.01F
BOOTHVILLE     CLEAR     80  74  81 NE3       29.98F
BELLE CHASSE   CLEAR     71  67  87 N3        29.99S
BOGALUSA*        N/A     67  64  90 CALM      30.03S
GALLIANO*      NOT AVBL
NEW ROADS*     CLOUDY    69  68  98 CALM      30.02S FOG
GONZALES*        N/A     67  67 100 CALM      30.01S FOG
HAMMOND*       CLEAR     68  64  88 CALM      30.02S
HOUMA*         CLEAR     71  66  84 CALM      29.99F
PORT FOURCHON* SUNNY     79  73  83 N7        30.01S

$$

MSZ070-080>082-221000-
SOUTHERN MISSISSIPPI

CITY           SKY/WX    TMP DP  RH WIND       PRES   REMARKS
MCCOMB         PTCLDY    69  66  90 CALM      30.02S
GULFPORT       CLEAR     70  68  93 CALM      29.99S
BILOXI         CLEAR     73  71  93 NW1       29.99F
PASCAGOULA     CLEAR     65  64  97 CALM      29.99F FOG

$$

COASTAL OBSERVATIONS
LAKE AND NEARSHORE STATIONS

STATION/POSITION TIME  TEMP    WIND        PRES    WAVE
                       AIR SEA DIR/SP/G            HT/PER
                 (UTC) (F)     (DEG/KT/KT) (MB)    (FT/S)
PASCAGOULA       0900   73      10/  5/  5 1015.1
WAVELAND YACHT   0900   74     320/  2/  3 1015.0
GRAND ISLE       0900   80 82   40/  6/ 10 1015.7
SOUTHWEST PASS   0900   82 89   40/  8/  9 1015.0
NEW CANAL        0900   78 81     CALM     1016.2
SHELL BEACH      0900   80 78  360/  6/  7 1015.4

OFFSHORE STATIONS

STATION/POSITION TIME  TEMP    WIND        PRES    WAVE
                       AIR SEA DIR/SP/G            HT/PER
                 (UTC) (F)     (DEG/KT/KT) (MB)    (FT/S)
64 S DAUPHIN ISL 0758   82 84  100/ 10/ 12 1015.0    2/ 5

$$




USA.gov is the U.S. government's official web portal to all federal, state and local government web resources and services.